Regional Weather Roundup
Issued by NWS Jackson, KY

Home | Current Version | Previous Version | Graphics & Text | Print | Product List | Glossary On
Versions: 1 2 3 4 5 6 7 8 9 10 11 12 13 14 15 16 17 18 19 20 21 22 23 24 25 26 27 28 29 30 31 32 33 34 35 36 37 38 39 40 41 42 43 44 45 46 47 48 49 50
000
ASUS43 KJKL 282010
RWRJKL

EAST KENTUCKY HOURLY WEATHER ROUNDUP
NATIONAL WEATHER SERVICE JACKSON KY
300 PM EST SAT FEB 28 2015

NOTE: "FAIR" INDICATES FEW OR NO CLOUDS BELOW 12,000 FEET WITH
NO SIGNIFICANT WEATHER AND/OR OBSTRUCTIONS TO VISIBILITY.

* THESE REPORTS ARE NOT UNDER NWS QUALITY CONTROL AND MAY NOT
  REPORT WEATHER SUCH AS PRECIPITATION AND FOG.

KYZ079-080-083-085-087-088-110-112-115-119-120-282100
...EASTERN KENTUCKY...

CITY           SKY/WX    TMP DP  RH WIND       PRES   REMARKS
JACKSON        MOSUNNY   39  13  34 CALM      30.54F
LONDON         PTSUNNY   42  16  34 CALM      30.53F
SOMERSET*      CLOUDY    41  19  42 CALM      30.54F
MONTICELLO*    CLOUDY    43  23  45 NE8       30.54F
MIDDLESBORO*   MOSUNNY   44  23  43 E5        30.53F
HAZARD APT*    CLEAR     43  18  36 CALM      30.53F
BLACK MTN*       N/A     39  25  56 S2          N/A
PIKEVILLE APT* SUNNY     37  18  44 CALM      30.54F
BIG SANDY*     CLEAR     39  18  42 CALM      30.56S
MOREHEAD APT*  CLOUDY    36   9  32 CALM      30.59F
$$

KYZ035-036-041-042-044-050-067-078-099-282100
...CENTRAL KENTUCKY...

CITY           SKY/WX    TMP DP  RH WIND       PRES   REMARKS
MT STERLING*   CLOUDY    34  16  47 E7        30.57F WCI  28
FLEMING/MASON* CLOUDY    32  10  40 E3        30.59F
DANVILLE*      CLOUDY    32  18  55 E5        30.55F WCI  27
RICHMOND*      CLOUDY    36  14  41 N7        30.54F WCI  30
LEXINGTON      MOSUNNY   34  16  47 E8        30.55F WCI  27
FRANKFORT        N/A     30  14  51 E12       30.55F WCI  20
$$

KYZ091>093-OHZ055-061-077-WVZ005-015-034-035-042-282100
...SOUTHERN OHIO/WEST VIRGINIA...

CITY           SKY/WX    TMP DP  RH WIND       PRES   REMARKS
COVINGTON      CLOUDY    27   8  44 E9        30.59F WCI  18
COLUMBUS         N/A     24   1  36 E5        30.65F WCI  18
DAYTON         PTSUNNY   24   4  42 E10       30.62F WCI  14
WILMINGTON     MOSUNNY   21   6  52 NE6       30.61F WCI  13
HUNTINGTON     SUNNY     34  10  37 VRB6      30.59F WCI  29
CHARLESTON     MOSUNNY   37  13  37 VRB5      30.58F WCI  33
PINEVILLE*     CLOUDY    44  22  42 MISG      30.57F
BECKLEY        SUNNY     34  14  43 VRB7      30.51F WCI  28
BLUEFIELD      MOSUNNY   39  15  37 VRB5      30.50F
$$

VAZ002-007-008-TNZ017-027-036-066-071-282100
...SOUTHWEST VIRGINIA/EAST TENNESSEE...

CITY           SKY/WX    TMP DP  RH WIND       PRES   REMARKS
WISE*          SUNNY     45  18  33 SE5       30.49S
JONESVILLE*    CLEAR     45  19  36 N3        30.54S
ABINGDON*      MOSUNNY   42  21  43 E6        30.51F
BRISTOL        PTSUNNY   45  24  43 CALM      30.52F
KNOXVILLE      PTSUNNY   44  24  45 NE6       30.51F
OAK RIDGE      MOSUNNY   47  23  38 VRB3      30.53F
CROSSVILLE     SUNNY     46  28  49 S9        30.46F
NASHVILLE      PTSUNNY   45  20  36 E5        30.49F
$$

...KEY TO REMARKS...
VSB - VISIBILITY IN MILES
WCI - WIND CHILL INDEX
HX  - HEAT INDEX

$$



USA.gov is the U.S. government's official web portal to all federal, state and local government web resources and services.